[[{"header":{"parameterUnit":"m.s-1","parameterCategory":1,"la1":30.2991,"la2":30.254,"lo1":-89.0895,"lo2":-89.0444,"dy":0.0017,"dx":0.0017,"nx":28,"ny":28,"refTime":"2024-08-28T21:00:00:Z","depth":0,"parameterNumber":2,"parameterNumberName":"U-component_of_WINDS"},"data":[0,0,0,0,0,0,0,0,0,0,0,0,0,0,0,0,0,0,0,0,0,0,0,0,0,0,0,0,0,0,0,0,0,0,0,0,0,0,0,0,0,0,0,0,0,0,0,0,0,0,0,0,0,0,0,0,0,0,-2.8314,-2.8314,0,-2.8372,-2.8373,-2.8373,-2.8362,-2.8361,-2.836,-2.8359,-2.8417,-2.8419,-2.8422,0,0,0,0,0,0,0,0,0,0,0,0,0,-2.8192,-2.8194,-2.8314,-2.8314,-2.8315,-2.8372,-2.8373,-2.8373,-2.8362,-2.8361,-2.8359,-2.8358,-2.8416,-2.8419,-2.8422,0,0,0,0,0,0,0,0,0,0,0,0,0,-2.8247,-2.8195,-2.8313,-2.8316,-2.8317,-2.8372,-2.8373,-2.8374,-2.8362,-2.8361,-2.8359,-2.8358,-2.8415,-2.8419,-2.8422,-2.8478,0,0,-2.8434,-2.8436,0,0,0,0,0,0,0,0,-2.8244,-2.8251,-2.8315,-2.8316,-2.8317,-2.8358,-2.8351,-2.8408,-2.8363,-2.8345,-2.8359,-2.8357,-2.8398,-2.8403,-2.8418,-2.848,-2.8483,-2.8434,-2.8437,-2.8438,-2.8439,0,0,0,0,0,0,0,-2.824,-2.8249,-2.8337,-2.8316,-2.8317,-2.8314,-2.832,-2.8362,-2.838,-2.8346,-2.8346,-2.8353,-2.8399,-2.8414,-2.8419,-2.8484,-2.8434,-2.8438,-2.844,-2.8441,-2.8595,-2.8597,0,0,0,0,0,0,-2.8235,-2.8246,-2.8335,-2.8338,-2.8276,-2.8318,-2.8325,-2.8346,-2.8379,-2.8383,-2.8354,-2.8352,-2.8408,-2.8415,-2.8421,-2.8488,-2.8438,-2.8442,-2.8444,-2.8593,-2.8596,-2.8598,0,0,0,0,0,0,-2.8233,-2.8243,-2.8332,-2.8292,-2.8303,-2.8322,-2.8346,-2.8348,-2.8364,-2.8385,-2.8388,-2.8367,-2.8407,-2.8416,-2.8464,-2.849,-2.8444,-2.8447,-2.8591,-2.8594,-2.8597,-2.8622,0,0,0,0,0,0,-2.8229,-2.8243,-2.8263,-2.8292,-2.8305,-2.8374,-2.8348,-2.8351,-2.8371,-2.8369,-2.8398,-2.8401,-2.8407,-2.8458,-2.8468,-2.8494,-2.845,-2.8589,-2.8592,-2.8596,-2.8618,-2.8625,-2.863,0,0,0,0,0,-2.8225,-2.8268,-2.8265,-2.8275,-2.8332,-2.8376,-2.8383,-2.8389,-2.8373,-2.8394,-2.8408,-2.84,-2.8486,-2.8463,-2.8474,-2.8502,-2.8587,-2.8591,-2.8595,-2.8616,-2.8624,-2.863,0,0,0,0,0,0,-2.824,-2.8271,-2.8268,-2.8322,-2.8346,-2.8374,-2.84,-2.8397,-2.8426,-2.8423,-2.8429,-2.8436,-2.8485,-2.8498,-2.8473,-2.8557,-2.8534,-2.8541,-2.8546,-2.8554,-2.8559,-2.8554,-2.8453,0,0,0,0,0,-2.825,-2.8283,-2.8309,-2.8353,-2.8366,-2.8382,-2.8401,-2.8404,-2.8429,-2.8439,-2.8456,-2.8481,-2.8514,-2.8535,-2.8566,-2.8621,-2.8627,-2.8646,-2.8652,-2.8656,-2.8661,-2.8692,-2.87,-2.8611,-2.8611,-2.8611,0,0,-2.827,-2.8291,-2.8312,-2.8357,-2.8376,-2.8411,-2.839,-2.8427,-2.8452,-2.8444,-2.8491,-2.8505,-2.8533,-2.8585,-2.8609,-2.8598,-2.8688,-2.8662,-2.8665,-2.8667,-2.8697,-2.8705,-2.8713,-2.8614,-2.8613,-2.8613,0,0,-2.8324,-2.8344,-2.8383,-2.8403,-2.8433,-2.8444,-2.8453,-2.8482,-2.8491,-2.8538,-2.8533,-2.8564,-2.862,-2.864,-2.8658,-2.8722,-2.8715,-2.8732,-2.8761,-2.8791,-2.8798,-2.8805,-2.8827,-2.8835,-2.8737,-2.8737,-2.8737,0,-2.8344,-2.8396,-2.8404,-2.8441,-2.8461,-2.8458,-2.8498,-2.8517,-2.8555,-2.8569,-2.8557,-2.8628,-2.8646,-2.8703,-2.8719,-2.8734,-2.8745,-2.8727,-2.8797,-2.8803,-2.8809,-2.883,-2.8839,-2.8739,-2.8739,-2.8738,-2.8738,0,-2.842,-2.8456,-2.8484,-2.8522,-2.8546,-2.8585,-2.8598,-2.8621,-2.8623,-2.8635,-2.8683,-2.8706,-2.8742,-2.8756,-2.8758,-2.8814,-2.8806,-2.8795,-2.8772,-2.8819,-2.8839,-2.8848,-2.8741,-2.8741,-2.874,-2.874,0,0,-2.8482,-2.8526,-2.8536,-2.8553,-2.8587,-2.8615,-2.8654,-2.869,-2.871,-2.8737,-2.877,-2.8818,-2.8809,-2.8829,-2.8834,-2.886,-2.8909,-2.8846,-2.8847,-2.8856,-2.8972,-2.8979,-2.8988,-2.8906,-2.8908,-2.8909,-2.8969,0,-2.8538,-2.8607,-2.8616,-2.8677,-2.871,-2.8709,-2.8743,-2.8767,-2.878,-2.881,-2.8824,-2.8858,-2.8844,-2.8856,-2.8882,-2.8897,-2.8932,-2.8894,-2.8936,-2.8937,-2.8927,-2.8998,-2.9005,-2.9061,-2.8977,-2.8979,-2.898,0,-2.8612,-2.8642,-2.8707,-2.8737,-2.8752,-2.8782,-2.8816,-2.8845,-2.8874,-2.8881,-2.8905,-2.8906,-2.8947,-2.8924,-2.898,-2.8953,-2.8971,-2.8982,-2.8984,-2.8987,-2.896,-2.9002,-2.9079,-2.9087,-2.8992,-2.8991,-2.899,0,-2.865,-2.8707,-2.8753,-2.8769,-2.8805,-2.8827,-2.8843,-2.887,-2.8891,-2.8922,-2.8936,-2.897,-2.8988,-2.9015,-2.9026,-2.9008,-2.9082,-2.9059,-2.9088,-2.9088,-2.9102,-2.91,-2.9181,-2.9116,-2.9116,-2.9116,-2.9116,0,-2.8711,-2.875,-2.8771,-2.8799,-2.8843,-2.8854,-2.8897,-2.8913,-2.8937,-2.8968,-2.897,-2.8999,-2.9012,-2.9044,-2.9053,-2.9098,-2.9106,-2.9113,-2.9115,-2.9112,-2.9111,-2.9123,-2.9118,-2.9118,-2.9118,-2.9117,-2.9117,0,-2.876,-2.8775,-2.8825,-2.8857,-2.8866,-2.8897,-2.8924,-2.8951,-2.8965,-2.9004,-2.9014,-2.9035,-2.9072,-2.9086,-2.9132,-2.9138,-2.9189,-2.9188,-2.918,-2.918,-2.9208,-2.9204,-2.9297,-2.931,-2.9238,-2.9239,-2.9239,0,-2.8796,-2.8827,-2.8862,-2.8883,-2.89,-2.8935,-2.8957,-2.8969,-2.8992,-2.9028,-2.9051,-2.9089,-2.9119,-2.9179,-2.9198,-2.9233,-2.9232,-2.9262,-2.9237,-2.9234,-2.9231,-2.9229,-2.9231,-2.9266,-2.9267,-2.9267,-2.9268,0,-2.886,-2.8867,-2.8899,-2.8934,-2.8961,-2.8989,-2.9017,-2.9034,-2.9051,-2.9077,-2.9115,-2.9139,-2.9186,-2.9223,-2.926,-2.9276,-2.9275,-2.9276,-2.9285,-2.9281,-2.9275,-2.9278,-2.9191,-2.9273,-2.9273,-2.9272,-2.9272,-2.9272,-2.8903,-2.893,-2.8959,-2.8995,-2.9018,-2.9044,-2.9071,-2.9089,-2.9121,-2.9161,-2.9167,-2.9208,-2.9237,-2.9285,-2.9304,-2.9337,-2.9328,-2.9341,-2.9344,-2.9346,-2.9348,-2.9271,-2.9343,-2.9343,-2.9343,-2.9343,-2.9343,0,-2.8966,-2.8985,-2.9018,-2.9057,-2.9086,-2.9084,-2.9114,-2.9138,-2.9175,-2.9202,-2.9232,-2.9277,-2.9314,-2.9337,-2.9373,-2.9395,-2.9395,-2.9404,-2.9402,-2.9406,-2.9353,-2.9342,-2.9403,-2.9403,-2.9403,-2.9403,-2.9403,-2.9403,-2.9002,-2.9047,-2.9058,-2.9115,-2.9134,-2.9174,-2.9192,-2.9217,-2.9238,-2.9288,-2.9319,-2.9334,-2.936,-2.9399,-2.9432,-2.9438,-2.9451,-2.946,-2.9465,-2.9416,-2.9409,-2.9403,-2.9392,-2.9463,-2.9464,-2.9515,-2.9515,-2.9516]},{"header":{"parameterUnit":"m.s-1","parameterCategory":1,"la1":30.2991,"la2":30.254,"lo1":-89.0895,"lo2":-89.0444,"dy":0.0017,"dx":0.0017,"nx":28,"ny":28,"refTime":"2024-08-28T21:00:00:Z","depth":0,"parameterNumber":3,"parameterNumberName":"V-component_of_WINDS"},"data":[0,0,0,0,0,0,0,0,0,0,0,0,0,0,0,0,0,0,0,0,0,0,0,0,0,0,0,0,0,0,0,0,0,0,0,0,0,0,0,0,0,0,0,0,0,0,0,0,0,0,0,0,0,0,0,0,0,0,2.8625,2.8626,0,2.8671,2.8672,2.8672,2.87,2.87,2.87,2.87,2.8747,2.8748,2.8749,0,0,0,0,0,0,0,0,0,0,0,0,0,2.8561,2.8562,2.8625,2.8626,2.8626,2.8671,2.8672,2.8673,2.87,2.87,2.87,2.87,2.8746,2.8748,2.8749,0,0,0,0,0,0,0,0,0,0,0,0,0,2.8596,2.8562,2.8625,2.8645,2.8648,2.8671,2.8672,2.8673,2.87,2.87,2.87,2.87,2.8746,2.8747,2.8749,2.8756,0,0,2.8754,2.8755,0,0,0,0,0,0,0,0,2.8594,2.8598,2.8642,2.8644,2.8647,2.868,2.8666,2.87,2.87,2.868,2.87,2.87,2.8724,2.8728,2.8736,2.8758,2.876,2.8754,2.8755,2.8756,2.8757,0,0,0,0,0,0,0,2.8591,2.8596,2.8643,2.8642,2.8645,2.8652,2.8657,2.8673,2.87,2.8682,2.8684,2.8689,2.8726,2.8734,2.8737,2.876,2.8754,2.8756,2.8757,2.8757,2.8792,2.8792,0,0,0,0,0,0,2.8586,2.8594,2.8642,2.8645,2.862,2.8653,2.8659,2.8669,2.87,2.8705,2.8689,2.869,2.8731,2.8735,2.8739,2.875,2.8756,2.8758,2.8759,2.8792,2.8792,2.8792,0,0,0,0,0,0,2.8584,2.859,2.864,2.862,2.8627,2.8654,2.8665,2.867,2.8679,2.8706,2.8711,2.8693,2.8732,2.8737,2.8752,2.8752,2.8758,2.876,2.8792,2.8792,2.8792,2.877,0,0,0,0,0,0,2.8582,2.8589,2.8592,2.862,2.8628,2.8652,2.8665,2.8671,2.8682,2.8684,2.8711,2.8715,2.8732,2.8749,2.8753,2.8754,2.8761,2.8792,2.8792,2.8792,2.8771,2.877,2.8768,0,0,0,0,0,2.858,2.8583,2.8592,2.8597,2.8632,2.8652,2.8656,2.8676,2.8681,2.8684,2.8702,2.8714,2.8751,2.875,2.8755,2.8757,2.8792,2.8792,2.8792,2.8772,2.877,2.8768,0,0,0,0,0,0,2.8553,2.8587,2.8597,2.861,2.8628,2.8656,2.8661,2.8673,2.869,2.8691,2.8715,2.872,2.8733,2.8747,2.8745,2.8766,2.8773,2.8774,2.8756,2.8755,2.8753,2.875,2.8763,0,0,0,0,0,2.8549,2.8563,2.8591,2.86,2.8609,2.8633,2.8642,2.8656,2.8676,2.8683,2.8702,2.8721,2.8737,2.8746,2.8762,2.8774,2.878,2.8777,2.8775,2.8774,2.8774,2.8783,2.8782,2.8791,2.8791,2.8791,0,0,2.854,2.8561,2.8567,2.8595,2.8611,2.8624,2.8639,2.8653,2.8663,2.8685,2.8701,2.8716,2.8738,2.8751,2.8758,2.8763,2.8774,2.8774,2.8772,2.8774,2.8782,2.8781,2.8781,2.8791,2.8791,2.8791,0,0,2.8531,2.8548,2.8557,2.8573,2.8597,2.8613,2.8615,2.8643,2.8653,2.867,2.8687,2.87,2.8726,2.8742,2.8753,2.8752,2.8764,2.8756,2.8748,2.8756,2.8755,2.8755,2.8755,2.8755,2.8757,2.8757,2.8757,0,2.8517,2.8538,2.856,2.8573,2.8585,2.8607,2.8617,2.8631,2.8659,2.8666,2.8671,2.8706,2.8722,2.8741,2.874,2.8749,2.8752,2.8753,2.8754,2.8753,2.8753,2.8754,2.8754,2.8756,2.8756,2.8756,2.8756,0,2.852,2.8535,2.854,2.8567,2.8579,2.8591,2.8614,2.8625,2.8638,2.8654,2.8671,2.8691,2.8713,2.8718,2.873,2.8738,2.8741,2.8749,2.8757,2.8751,2.8752,2.8752,2.8754,2.8755,2.8755,2.8755,0,0,2.8495,2.8535,2.8536,2.8549,2.8578,2.859,2.8603,2.8624,2.8633,2.8651,2.8663,2.8686,2.8694,2.8707,2.8722,2.8729,2.8727,2.8737,2.8738,2.8735,2.8738,2.8732,2.8732,2.8736,2.8736,2.8736,2.8737,0,2.8491,2.8515,2.8535,2.8552,2.8566,2.8587,2.8599,2.8618,2.8633,2.8648,2.8666,2.8682,2.8691,2.87,2.8707,2.8726,2.8729,2.8726,2.8747,2.8748,2.8741,2.8732,2.8725,2.8724,2.8737,2.8737,2.8737,0,2.8488,2.8507,2.8525,2.8553,2.856,2.857,2.8592,2.8605,2.8628,2.8639,2.8654,2.867,2.8685,2.8692,2.8713,2.8711,2.8721,2.8732,2.8732,2.8735,2.8742,2.8735,2.8725,2.8725,2.8738,2.8738,2.8738,0,2.8469,2.8498,2.8513,2.8524,2.8557,2.8563,2.8578,2.86,2.8612,2.8631,2.864,2.866,2.8671,2.8687,2.8708,2.8711,2.8728,2.8736,2.8738,2.8737,2.874,2.874,2.8732,2.8746,2.8746,2.8746,2.8746,0,2.8461,2.8472,2.8505,2.8514,2.8527,2.8551,2.8563,2.8579,2.8599,2.8612,2.8632,2.8644,2.8671,2.8686,2.8703,2.8719,2.8724,2.8733,2.8738,2.8732,2.873,2.8738,2.8739,2.8746,2.8746,2.8746,2.8746,0,2.8441,2.8464,2.8482,2.8513,2.8521,2.8529,2.8555,2.8565,2.8582,2.8599,2.8604,2.8631,2.8651,2.8673,2.87,2.8711,2.8726,2.8732,2.8718,2.8721,2.8721,2.8721,2.8718,2.872,2.8733,2.8733,2.8732,0,2.8435,2.8444,2.8476,2.8486,2.85,2.8516,2.8529,2.8553,2.8566,2.8593,2.86,2.8621,2.8638,2.8668,2.8691,2.8712,2.8719,2.8716,2.8722,2.8716,2.8719,2.8719,2.872,2.8715,2.8714,2.8714,2.8714,0,2.8422,2.8434,2.8451,2.8473,2.8487,2.8506,2.8525,2.8532,2.856,2.8573,2.8594,2.8608,2.8635,2.8656,2.868,2.8695,2.8709,2.8712,2.8714,2.8708,2.87,2.8705,2.8714,2.8712,2.8712,2.8712,2.8712,2.8713,2.841,2.8419,2.8443,2.8462,2.8479,2.8497,2.8508,2.8527,2.8545,2.8569,2.8583,2.8603,2.8627,2.866,2.8675,2.8692,2.8696,2.8698,2.8699,2.8699,2.8698,2.8697,2.8696,2.8696,2.8696,2.8696,2.8696,0,2.8398,2.8415,2.8433,2.8459,2.8474,2.8487,2.8509,2.8521,2.8539,2.856,2.8577,2.8601,2.8622,2.8646,2.8669,2.8677,2.8685,2.8683,2.8682,2.8686,2.8692,2.8688,2.8676,2.8676,2.8676,2.8676,2.8676,2.8676,2.8394,2.8411,2.8425,2.845,2.8467,2.8487,2.8499,2.8516,2.8533,2.8558,2.8576,2.8592,2.8615,2.8639,2.8659,2.8666,2.8673,2.8669,2.8678,2.8683,2.8685,2.8687,2.8684,2.8671,2.8671,2.8671,2.8671,2.8671]}]]